This demonstration page uses our WeatherBlox Daily Observations layout. Learn more.

Left ArrowRight Arrow

Hourly Observations for April 26, 2018

Temp ( °F °C ) Dew Point ( °F °C ) Humidity (%) Winds ( mph kmh ) Pressure ( in mb ) Visibility ( mi km ) Precip ( " mm )
12:59 am 00:59 Mostly Cloudy 60 15.6 57 13.9 90 90 SW 5 7 29.76 1008 10 16 0.00 0.00
1:59 am 01:59 Mostly Cloudy 60 15.6 58 14.4 93 93 WSW 8 13 29.77 1008 9 14 0.00 0.00
2:59 am 02:59 Mostly Cloudy 60 15.6 57 13.9 90 90 W 6 9 29.78 1008 9 14 0.00 0.00
3:59 am 03:59 Mostly Cloudy 61 16.1 57 13.9 87 87 WNW 7 11 29.79 1009 10 16 0.00 0.00
4:59 am 04:59 Mostly Cloudy 61 16.1 56 13.3 84 84 NW 8 13 29.81 1010 10 16 0.00 0.00
5:59 am 05:59 Mostly Cloudy 60 15.6 51 10.6 72 72 NW 6 9 29.83 1010 10 16 0.00 0.00
6:59 am 06:59 Mostly Cloudy 59 15 50 10 72 72 NNW 7 11 29.85 1011 10 16 0.00 0.00
7:59 am 07:59 Mostly Cloudy 59 15 51 10.6 75 75 NNW 6 9 29.88 1012 10 16 0.00 0.00
8:59 am 08:59 Mostly Cloudy 59 15 47 8.3 64 64 N 7 11 29.89 1012 10 16 0.00 0.00
9:59 am 09:59 Mostly Cloudy 60 15.6 45 7.2 58 58 N 7 11 29.90 1013 10 16 0.00 0.00
10:59 am 10:59 Mostly Cloudy 60 15.6 42 5.6 52 52 NNE 6 9 29.91 1013 10 16 0.00 0.00
11:59 am 11:59 Mostly Cloudy 62 16.7 44 6.7 52 52 N 6 9 29.91 1013 10 16 0.00 0.00
12:59 pm 12:59 Mostly Cloudy 64 17.8 42 5.6 45 45 Calm 29.91 1013 10 16 0.00 0.00
1:59 pm 13:59 Mostly Cloudy 66 18.9 42 5.6 42 42 VRB 5 7 29.91 1013 10 16 0.00 0.00
2:59 pm 14:59 Partly Cloudy 67 19.4 45 7.2 45 45 N 7 11 29.89 1012 10 16 0.00 0.00
3:59 pm 15:59 Partly Cloudy 67 19.4 44 6.7 44 44 ENE 7 11 29.88 1012 10 16 0.00 0.00
4:59 pm 16:59 Partly Cloudy 66 18.9 43 6.1 43 43 E 7 11 29.88 1012 10 16 0.00 0.00
5:59 pm 17:59 Partly Cloudy 66 18.9 45 7.2 47 47 ESE 9 15 29.88 1012 10 16 0.00 0.00
6:59 pm 18:59 Mostly Cloudy 64 17.8 45 7.2 50 50 SSE 7 11 29.87 1012 10 16 0.00 0.00
7:59 pm 19:59 Cloudy 62 16.7 43 6.1 50 50 SSE 9 15 29.88 1012 10 16 0.00 0.00
8:59 pm 20:59 Cloudy 60 15.6 46 7.8 60 60 SE 8 13 29.89 1012 10 16 0.00 0.00
9:59 pm 21:59 Cloudy 59 15 46 7.8 62 62 SE 7 11 29.89 1012 10 16 0.00 0.00
10:59 pm 22:59 Cloudy 59 15 49 9.4 69 69 SE 7 11 29.87 1012 10 16 0.00 0.00
11:59 pm 23:59 Cloudy 59 15 49 9.4 69 69 SE 7 11 29.85 1011 10 16 0.00 0.00

Powered by AerisWeather